Location: Sommers-Bausch Observatory
(40.0037°N, 105.2635°W)
Time: 15:01:20
(UTC-06:00)

Amateur Radio Satellites - All Passes

Search period start: 01 September 2014 14:31
Search period end: 02 September 2014 14:31
Location: Sommers-Bausch Observatory, 40.0037°N, 105.2635°W

Satellite Date Start Highest point End Downlink Frequencies (MHz)
Time Altitude Azimuth
UOSAT-12 01 Sep 14:35:30 14:40:13 71° 241° (WSW) 14:44:50 437.025 FM, 437.400 FM
Oscar 16 01 Sep 14:43:53 14:48:10 26° 265° (W) 14:52:30 437.025 USB, Beacon 2401.1428
ITAMSAT 1 01 Sep 14:44:18 14:49:24 61° 259° (WSW) 14:54:32 435.822 SSB
PANSAT 01 Sep 14:50:36 14:51:03 10° 194° (SSW) 14:51:30 not established
Uribyol 2 01 Sep 14:53:59 14:58:55 46° 261° (W) 15:03:53 436.500 FM
RS-15 01 Sep 14:57:42 15:07:18 32° 36° (NE) 15:17:07 29.354 - 29.394 USB, Beacon 29.352 USB
ISS 01 Sep 15:01:38 15:03:55 17° 18° (NNE) 15:06:12 145.800 FM
TMSAT-1 01 Sep 15:03:15 15:08:29 66° 74° (ENE) 15:13:44 436.925 FM
Uosat F 01 Sep 15:14:33 15:17:36 17° 62° (ENE) 15:20:40 435.120 FM
AO-27 01 Sep 15:14:35 15:19:08 31° 263° (W) 15:23:43 436.795 MHz FM
Sapphire 01 Sep 15:21:12 15:22:19 11° 101° (ESE) 15:23:26 437.095 MHz 1200 baud AX-25 AFSK
AO-7 01 Sep 15:33:29 15:41:15 45° 63° (ENE) 15:49:00 29.400 - 29.500 MHz
JAS-1B 01 Sep 15:36:36 15:45:36 41° 263° (W) 15:53:50 435.800 - 435.900 CW/SSB
PCSat 01 Sep 15:47:06 15:51:12 22° 106° (ESE) 15:55:18 145.825 MHz
Gurwin Techsat 1B 01 Sep 15:53:32 15:58:13 32° 264° (W) 16:02:56 435.225 FM
ISS 01 Sep 16:37:45 16:41:06 77° 36° (NE) 16:44:25 145.800 FM
OPAL 01 Sep 16:42:35 16:46:36 22° 96° (E) 16:50:35 ?
TMSAT-1 01 Sep 16:46:01 16:48:51 15° 270° (W) 16:51:42 436.925 FM
Uosat F 01 Sep 16:50:57 16:55:53 60° 259° (WSW) 17:00:51 435.120 FM
Sapphire 01 Sep 16:59:28 17:04:53 89° 118° (ESE) 17:10:20 437.095 MHz 1200 baud AX-25 AFSK
RS-15 01 Sep 17:09:56 17:21:04 86° 241° (WSW) 17:32:40 29.354 - 29.394 USB, Beacon 29.352 USB
JAS-2 01 Sep 17:22:09 17:27:24 33° 69° (ENE) 17:32:14 435.800 - 435.900 CW/SSB, 435.910 FM
AO-7 01 Sep 17:26:19 17:34:02 41° 261° (W) 17:41:46 29.400 - 29.500 MHz
PCSat 01 Sep 17:29:00 17:34:14 49° 303° (WNW) 17:39:31 145.825 MHz
Hamsat 01 Sep 18:13:41 18:18:00 86° 258° (WSW) 18:22:23 145.90 MHz
ISS 01 Sep 18:16:23 18:17:22 11° 232° (SW) 18:18:22 145.800 FM
OPAL 01 Sep 18:20:41 18:25:38 45° 292° (WNW) 18:30:33 ?
STRAND 1 01 Sep 18:31:19 18:33:09 12° 90° (E) 18:34:59 ?
Sapphire 01 Sep 18:45:48 18:49:03 16° 317° (NW) 18:52:20 437.095 MHz 1200 baud AX-25 AFSK
JAS-2 01 Sep 19:07:00 19:12:27 33° 262° (W) 19:17:27 435.800 - 435.900 CW/SSB, 435.910 FM
SO-67 01 Sep 19:14:52 19:18:18 64° 76° (ENE) 19:21:45 435.3500 MHz FM
RS-15 01 Sep 19:24:36 19:31:50 20° 260° (W) 19:39:17 29.354 - 29.394 USB, Beacon 29.352 USB
STRAND 1 01 Sep 20:07:46 20:12:52 76° 286° (WNW) 20:17:58 ?
HO-68 01 Sep 20:36:42 20:43:33 52° 67° (ENE) 20:50:25 435.675 MHz FM
MaSat-1 01 Sep 21:08:42 21:10:06 11° 44° (NE) 21:11:28 437.345 MHz
KITSAT 1 01 Sep 21:29:32 21:32:07 12° 98° (E) 21:34:42 435.175 FM
UKube-1 01 Sep 21:45:57 21:50:17 80° 257° (WSW) 21:54:39 145.840 MHz, 145.915 MHz
Oscar 11 01 Sep 21:49:42 21:54:00 68° 75° (ENE) 21:58:20 145.825 FM, Beacon 2401.500 USB
Saudisat 1A 01 Sep 22:20:17 22:24:40 73° 120° (ESE) 22:29:05 436.775 MHz
FUNcube-1 01 Sep 22:21:48 22:25:54 57° 74° (ENE) 22:30:06 145.950 - 145.970 MHz USB
HO-68 01 Sep 22:25:29 22:31:29 29° 265° (W) 22:37:32 435.675 MHz FM
AO-40 01 Sep 22:42:45 03:04:34 34° 139° (SE) 04:35:07 Beacon 2401.320
MaSat-1 01 Sep 22:43:27 22:47:59 89° 247° (WSW) 22:51:49 437.345 MHz
KITSAT 1 01 Sep 23:18:02 23:26:03 71° 116° (ESE) 23:34:06 435.175 FM
FUNcube-1 02 Sep 00:01:28 00:02:42 11° 270° (W) 00:03:56 145.950 - 145.970 MHz USB
Saudisat 1A 02 Sep 00:02:09 00:04:45 15° 318° (NW) 00:07:23 436.775 MHz
Sapphire 02 Sep 00:07:17 00:09:00 11° 38° (NE) 00:10:43 437.095 MHz 1200 baud AX-25 AFSK
PCSat 02 Sep 00:35:02 00:38:51 19° 45° (NE) 00:42:39 145.825 MHz
Oscar 10/S400 02 Sep 01:06:43 02:00:11 55° 207° (SSW) 09:42:14 145.825 - 145.975 CW/USB, Beacon 145.810 USB
KITSAT 1 02 Sep 01:15:12 01:22:07 30° 317° (NW) 01:29:04 435.175 FM
Oscar 16 02 Sep 01:18:09 01:20:31 13° 90° (E) 01:22:53 437.025 USB, Beacon 2401.1428
Sapphire 02 Sep 01:48:11 01:53:34 61° 59° (ENE) 01:58:55 437.095 MHz 1200 baud AX-25 AFSK
AO-27 02 Sep 01:51:22 01:52:33 11° 89° (E) 01:53:44 436.795 MHz FM
PCSat 02 Sep 02:17:25 02:22:50 72° 244° (WSW) 02:28:12 145.825 MHz
Oscar 19 02 Sep 02:19:54 02:24:59 52° 100° (E) 02:30:01 437.125 CW, 437.150 USB
AO-Echo 02 Sep 02:28:30 02:32:32 28° 96° (E) 02:36:35 ?
Gurwin Techsat 1B 02 Sep 02:32:11 02:34:27 13° 90° (E) 02:36:41 435.225 FM
Oscar 16 02 Sep 02:55:11 03:00:23 71° 286° (WNW) 03:05:32 437.025 USB, Beacon 2401.1428
ITAMSAT 1 02 Sep 02:57:49 03:02:52 50° 100° (E) 03:07:54 435.822 SSB
SO-50 02 Sep 03:00:34 03:04:46 43° 116° (ESE) 03:09:05 436.795 FM
Uribyol 2 02 Sep 03:07:04 03:12:15 67° 102° (ESE) 03:17:25 436.500 FM
KITSAT 1 02 Sep 03:19:01 03:20:47 11° 345° (NNW) 03:22:33 435.175 FM
TMSAT-1 02 Sep 03:20:16 03:24:46 28° 95° (E) 03:29:15 436.925 FM
JAS-1B 02 Sep 03:24:17 03:30:53 75° 103° (ESE) 03:36:40 435.800 - 435.900 CW/SSB
AO-27 02 Sep 03:27:28 03:32:40 83° 285° (WNW) 03:37:52 436.795 MHz FM
Sapphire 02 Sep 03:32:56 03:36:27 18° 255° (WSW) 03:39:58 437.095 MHz 1200 baud AX-25 AFSK
AO-7 02 Sep 03:38:56 03:41:56 12° 88° (E) 03:44:54 29.400 - 29.500 MHz
OPAL 02 Sep 03:56:36 04:01:13 37° 67° (ENE) 04:05:55 ?
Oscar 19 02 Sep 04:00:15 04:03:55 20° 296° (WNW) 04:07:34 437.125 CW, 437.150 USB
AO-Echo 02 Sep 04:07:15 04:11:16 29° 292° (WNW) 04:15:17 ?
Gurwin Techsat 1B 02 Sep 04:09:38 04:14:57 75° 286° (WNW) 04:20:14 435.225 FM
ITAMSAT 1 02 Sep 04:38:16 04:41:59 20° 296° (WNW) 04:45:41 435.822 SSB
SO-50 02 Sep 04:41:56 04:45:31 23° 314° (NW) 04:49:10 436.795 FM
UOSAT-12 02 Sep 04:46:02 04:50:20 41° 115° (ESE) 04:54:44 437.025 FM, 437.400 FM
Uribyol 2 02 Sep 04:48:07 04:51:09 16° 298° (WNW) 04:54:12 436.500 FM
Uosat F 02 Sep 04:59:21 05:04:08 44° 99° (E) 05:08:53 435.120 FM
TMSAT-1 02 Sep 04:59:55 05:04:43 36° 291° (WNW) 05:09:30 436.925 FM
AO-27 02 Sep 05:10:14 05:11:20 11° 302° (WNW) 05:12:27 436.795 MHz FM
JAS-1B 02 Sep 05:16:36 05:20:33 17° 305° (NW) 05:24:14 435.800 - 435.900 CW/SSB
KITSAT 1 02 Sep 05:18:37 05:20:54 11° 17° (NNE) 05:23:11 435.175 FM
AO-7 02 Sep 05:27:42 05:36:01 73° 106° (ESE) 05:44:16 29.400 - 29.500 MHz
RS-15 02 Sep 05:28:34 05:32:42 13° 96° (E) 05:36:48 29.354 - 29.394 USB, Beacon 29.352 USB
OPAL 02 Sep 05:35:56 05:40:08 26° 263° (W) 05:44:25 ?
STRAND 1 02 Sep 05:46:07 05:49:28 18° 63° (ENE) 05:52:49 ?
Hamsat 02 Sep 06:01:12 06:04:12 18° 93° (E) 06:07:09 145.90 MHz
JAS-2 02 Sep 06:15:31 06:20:05 28° 97° (E) 06:24:58 435.800 - 435.900 CW/SSB, 435.910 FM
UOSAT-12 02 Sep 06:26:46 06:30:37 25° 313° (NW) 06:34:33 437.025 FM, 437.400 FM
Uosat F 02 Sep 06:38:52 06:42:37 22° 295° (WNW) 06:46:21 435.120 FM
Saudisat 1A 02 Sep 06:47:43 06:52:00 47° 53° (NE) 06:56:15 436.775 MHz
KITSAT 1 02 Sep 07:12:17 07:19:24 33° 45° (NE) 07:26:28 435.175 FM
AO-7 02 Sep 07:21:35 07:28:02 26° 305° (NW) 07:34:30 29.400 - 29.500 MHz
STRAND 1 02 Sep 07:23:12 07:28:12 56° 259° (W) 07:33:12 ?
RS-15 02 Sep 07:31:54 07:42:52 69° 116° (ESE) 07:53:39 29.354 - 29.394 USB, Beacon 29.352 USB
Hamsat 02 Sep 07:36:16 07:40:17 37° 288° (WNW) 07:44:15 145.90 MHz
JAS-2 02 Sep 08:00:27 08:05:14 35° 291° (WNW) 08:10:22 435.800 - 435.900 CW/SSB, 435.910 FM
SO-67 02 Sep 08:12:07 08:15:36 88° 98° (E) 08:19:03 435.3500 MHz FM
Saudisat 1A 02 Sep 08:28:18 08:31:12 17° 250° (WSW) 08:34:06 436.775 MHz
KITSAT 1 02 Sep 09:07:22 09:15:19 64° 246° (WSW) 09:23:14 435.175 FM
ISS 02 Sep 09:19:53 09:22:56 35° 136° (SE) 09:26:00 145.800 FM
UKube-1 02 Sep 09:35:53 09:38:53 18° 94° (E) 09:41:52 145.840 MHz, 145.915 MHz
Oscar 11 02 Sep 09:39:48 09:41:54 13° 91° (E) 09:43:59 145.825 FM, Beacon 2401.500 USB
RS-15 02 Sep 09:45:58 09:55:58 38° 320° (NW) 10:05:59 29.354 - 29.394 USB, Beacon 29.352 USB
HO-68 02 Sep 09:52:18 09:59:21 57° 102° (ESE) 10:06:22 435.675 MHz FM
FUNcube-1 02 Sep 10:13:09 10:15:16 13° 91° (E) 10:17:23 145.950 - 145.970 MHz USB
ISS 02 Sep 10:56:44 10:59:41 29° 333° (NNW) 11:02:39 145.800 FM
PANSAT 02 Sep 11:05:37 11:07:03 12° 169° (S) 11:08:29 not established
UKube-1 02 Sep 11:11:11 11:15:13 38° 289° (WNW) 11:19:13 145.840 MHz, 145.915 MHz
Oscar 11 02 Sep 11:14:07 11:18:23 52° 287° (WNW) 11:22:37 145.825 FM, Beacon 2401.500 USB
SO-50 02 Sep 11:32:34 11:36:59 36° 51° (NE) 11:41:27 436.795 FM
HO-68 02 Sep 11:40:46 11:46:37 28° 300° (WNW) 11:52:28 435.675 MHz FM
FUNcube-1 02 Sep 11:47:30 11:51:59 59° 286° (WNW) 11:56:31 145.950 - 145.970 MHz USB
RS-15 02 Sep 12:05:42 12:12:46 19° 353° (N) 12:19:55 29.354 - 29.394 USB, Beacon 29.352 USB
JAS-1B 02 Sep 12:20:03 12:24:54 16° 54° (NE) 12:29:27 435.800 - 435.900 CW/SSB
MaSat-1 02 Sep 12:29:38 12:34:18 46° 109° (ESE) 12:39:13 437.345 MHz
Oscar 16 02 Sep 12:34:08 12:37:43 19° 63° (ENE) 12:41:20 437.025 USB, Beacon 2401.1428
ISS 02 Sep 12:35:51 12:37:16 12° 352° (N) 12:38:40 145.800 FM
PANSAT 02 Sep 12:44:17 12:46:31 15° 182° (S) 12:48:44 not established
Uribyol 2 02 Sep 12:48:59 12:50:48 12° 59° (ENE) 12:52:37 436.500 FM
AO-27 02 Sep 13:07:52 13:11:12 18° 62° (ENE) 13:14:33 436.795 MHz FM
SO-50 02 Sep 13:13:21 13:17:26 28° 247° (WSW) 13:21:34 436.795 FM
UOSAT-12 02 Sep 13:16:14 13:20:29 32° 49° (NE) 13:24:40 437.025 FM, 437.400 FM
Oscar 19 02 Sep 13:36:02 13:41:10 70° 74° (ENE) 13:46:20 437.125 CW, 437.150 USB
AO-Echo 02 Sep 13:40:43 13:45:15 36° 70° (ENE) 13:49:40 ?
Gurwin Techsat 1B 02 Sep 13:52:05 13:55:54 21° 64° (ENE) 13:59:44 435.225 FM
JAS-1B 02 Sep 14:04:30 14:14:06 67° 71° (ENE) 14:22:36 435.800 - 435.900 CW/SSB
MaSat-1 02 Sep 14:07:29 14:11:32 24° 307° (NW) 14:15:43 437.345 MHz
Oscar 16 02 Sep 14:11:38 14:16:39 52° 260° (W) 14:21:44 437.025 USB, Beacon 2401.1428
ISS 02 Sep 14:13:17 14:15:08 14° 13° (NNE) 14:16:58 145.800 FM
ITAMSAT 1 02 Sep 14:15:11 14:20:19 72° 74° (ENE) 14:25:29 435.822 SSB
